This is the latest recevied weather packets stored in our database for station/object OK1FET-16. If no packets are shown the sender has not sent any weather packets the latest 1 day(s).
| Time | Temp. | Humidity | Pressure | Rain* | Wind** | Luminosity | Snow |
|---|---|---|---|---|---|---|---|
| 1777979466 | 20.56° C | 44% | 1006.2 hPa | - | 1.79 m/s, 241° | - | - |
| 1777979195 | 20.56° C | 45% | 1006.2 hPa | - | 1.79 m/s, 220° | - | - |
| 1777979195 | 20.56° C | 45% | 1006.2 hPa | - | 1.79 m/s, 220° | - | - |
| 1777979195 | 20.56° C | 45% | 1006.2 hPa | - | 1.79 m/s, 220° | - | - |
| 1777978924 | 21.11° C | 44% | 1006.1 hPa | - | 1.34 m/s, 239° | - | - |
| 1777978924 | 21.11° C | 44% | 1006.1 hPa | - | 1.34 m/s, 239° | - | - |
| 1777978924 | 21.11° C | 44% | 1006.1 hPa | - | 1.34 m/s, 239° | - | - |
| 1777978654 | 21.11° C | 43% | 1006.2 hPa | - | 1.79 m/s, 224° | - | - |
| 1777978653 | 21.11° C | 43% | 1006.2 hPa | - | 1.79 m/s, 224° | - | - |
| 1777978653 | 21.11° C | 43% | 1006.2 hPa | - | 1.79 m/s, 224° | - | - |
| 1777978653 | 21.11° C | 43% | 1006.2 hPa | - | 1.79 m/s, 224° | - | - |
| 1777978383 | 21.67° C | 46% | 1006.2 hPa | - | 1.34 m/s, 193° | - | - |
| 1777978383 | 21.67° C | 46% | 1006.2 hPa | - | 1.34 m/s, 193° | - | - |
| 1777978383 | 21.67° C | 46% | 1006.2 hPa | - | 1.34 m/s, 193° | - | - |
| 1777978383 | 21.67° C | 46% | 1006.2 hPa | - | 1.34 m/s, 193° | - | - |
| 1777978112 | 21.11° C | 47% | 1006.3 hPa | - | 0.89 m/s, 234° | - | - |
| 1777978112 | 21.11° C | 47% | 1006.3 hPa | - | 0.89 m/s, 234° | - | - |
| 1777978112 | 21.11° C | 47% | 1006.3 hPa | - | 0.89 m/s, 234° | - | - |
| 1777977841 | 20.56° C | 45% | 1006.3 hPa | - | 1.34 m/s, 230° | - | - |
| 1777977841 | 20.56° C | 45% | 1006.3 hPa | - | 1.34 m/s, 230° | - | - |
| 1777977571 | 20.56° C | 46% | 1006.3 hPa | - | 1.79 m/s, 181° | - | - |
| 1777977570 | 20.56° C | 46% | 1006.3 hPa | - | 1.79 m/s, 181° | - | - |
| 1777977570 | 20.56° C | 46% | 1006.3 hPa | - | 1.79 m/s, 181° | - | - |
| 1777977300 | 20.56° C | 48% | 1006.4 hPa | - | 1.34 m/s, 218° | - | - |
| 1777977300 | 20.56° C | 48% | 1006.4 hPa | - | 1.34 m/s, 218° | - | - |
* Rain since midnight (hover to see other rain measurements)
** Current wind speed in m/s (hover to see current wind gust speed)